contact:dominique.lefevre@mio.osupytheas.fr, maurice.libes@osupytheas.fr, didier.mallarino@osupytheas.fr
Project:EMSO http://www.emso-fr.org/EMSO-France
Depth: 2436.0 m
Title:EMSO Ligure Ouest : Data MII capteur AQUADOPP
Date,Latitude,Longitude,X_East,Y_North,Z_Up,Amplitude_X,Amplitude_Y,Amplitude_Z,Batterie,SoundSpeed,Heading,Pitch,Roll,Pressure,TIS,Speed,Direction
, degrees North, degrees East, m.s-1, m.s-1,m.s-1, 1, 1, 1, Volt, m.s-1, degree, degree, degree, dbar, degree_C, m.s-1, degree
2019-09-12T00:09:04,42.805,6.029,-0.005,-0.029,-0.026,100.0,104.0,97.0,13.4,1505.2,323.6,-0.8,1.8,2470.234,13.29,0.029,189.8
2019-09-12T00:12:05,42.805,6.029,-0.035,0.001,-0.021,99.0,103.0,97.0,13.4,1505.3,327.7,-0.8,1.8,2470.205,13.31,0.035,271.6
2019-09-12T00:15:06,42.805,6.029,-0.068,-0.006,-0.043,98.0,104.0,97.0,13.3,1505.3,325.8,-0.7,1.8,2470.206,13.31,0.068,265.0
2019-09-12T00:18:07,42.805,6.029,-0.063,-0.007,-0.009,101.0,103.0,96.0,13.4,1505.3,324.8,-0.7,1.8,2470.192,13.32,0.063,263.7
2019-09-12T00:21:08,42.805,6.029,-0.027,-0.004,0.031,99.0,104.0,97.0,13.4,1505.3,324.4,-0.7,1.8,2470.157,13.32,0.027,261.6
2019-09-12T00:24:09,42.805,6.029,-0.038,-0.026,-0.034,98.0,104.0,97.0,13.3,1505.3,326.4,-0.7,1.8,2470.168,13.33,0.046,235.6
2019-09-12T00:27:10,42.805,6.029,-0.008,-0.011,-0.013,99.0,103.0,97.0,13.3,1505.3,325.1,-0.7,1.8,2470.179,13.33,0.013,216.0
2019-09-12T00:30:11,42.805,6.029,-0.012,-0.006,0.018,100.0,107.0,97.0,13.4,1505.3,326.6,-0.7,1.8,2470.193,13.33,0.013,243.4
2019-09-12T00:33:12,42.805,6.029,-0.022,0.005,0.024,98.0,103.0,97.0,13.3,1505.3,325.6,-0.7,1.8,2470.139,13.33,0.022,282.8
2019-09-12T00:36:13,42.805,6.029,-0.029,0.001,-0.02,99.0,103.0,96.0,13.4,1505.3,326.4,-0.7,1.9,2470.185,13.33,0.029,272.0
2019-09-12T00:39:14,42.805,6.029,-0.034,-0.005,-0.002,99.0,102.0,96.0,13.4,1505.3,323.2,-0.7,1.8,2470.192,13.33,0.034,261.6
2019-09-12T00:42:15,42.805,6.029,-0.009,-0.017,0.021,99.0,103.0,97.0,13.4,1505.3,326.2,-0.7,1.8,2470.148,13.33,0.019,207.9
2019-09-12T00:45:16,42.805,6.029,-0.039,-0.001,-0.019,100.0,104.0,100.0,13.3,1505.3,323.1,-0.7,1.8,2470.134,13.33,0.039,268.5
2019-09-12T00:48:17,42.805,6.029,-0.029,0.0,-0.035,99.0,103.0,97.0,13.3,1505.3,326.8,-0.7,1.8,2470.149,13.33,0.028,270.0
2019-09-12T00:51:18,42.805,6.029,-0.011,-0.003,-0.001,99.0,103.0,97.0,13.3,1505.3,324.7,-0.7,1.8,2470.139,13.33,0.011,254.7
2019-09-12T00:54:19,42.805,6.029,-0.011,0.003,0.011,98.0,105.0,97.0,13.4,1505.3,327.8,-0.7,1.8,2470.215,13.33,0.011,285.3
2019-09-12T00:57:20,42.805,6.029,-0.039,-0.006,-0.01,99.0,103.0,97.0,13.3,1505.3,323.6,-0.7,1.8,2470.151,13.33,0.039,261.3
2019-09-12T01:00:21,42.805,6.029,-0.045,-0.008,0.05,101.0,103.0,97.0,13.3,1505.3,323.0,-0.7,1.8,2470.101,13.33,0.045,259.9
2019-09-12T01:03:22,42.805,6.029,-0.046,-0.019,-0.019,99.0,103.0,97.0,13.3,1505.3,324.0,-0.7,1.8,2470.086,13.33,0.049,247.6
2019-09-12T01:06:23,42.805,6.029,-0.036,-0.014,0.011,99.0,102.0,98.0,13.3,1505.3,328.1,-0.7,1.8,2470.126,13.33,0.038,248.8
2019-09-12T01:09:24,42.805,6.029,-0.035,-0.024,-0.008,99.0,104.0,97.0,13.4,1505.3,325.4,-0.7,1.8,2470.097,13.33,0.042,235.6
2019-09-12T01:12:25,42.805,6.029,-0.018,-0.024,-0.006,100.0,103.0,97.0,13.4,1505.3,324.7,-0.7,1.8,2470.104,13.33,0.03,216.9
2019-09-12T01:15:26,42.805,6.029,-0.044,-0.013,-0.02,99.0,104.0,97.0,13.3,1505.3,324.8,-0.7,1.8,2470.155,13.33,0.045,253.5
2019-09-12T01:18:27,42.805,6.029,-0.045,0.001,-0.042,98.0,105.0,97.0,13.4,1505.3,327.8,-0.8,1.8,2470.102,13.33,0.045,271.3
2019-09-12T01:21:28,42.805,6.029,-0.026,0.001,-0.02,101.0,102.0,97.0,13.4,1505.3,327.9,-0.7,1.8,2470.102,13.33,0.026,272.2
2019-09-12T01:24:29,42.805,6.029,-0.01,-0.011,0.009,99.0,103.0,97.0,13.3,1505.3,327.8,-0.7,1.8,2470.088,13.33,0.014,222.3
2019-09-12T01:27:30,42.805,6.029,-0.012,0.009,-0.007,100.0,103.0,96.0,13.4,1505.3,325.0,-0.7,1.8,2470.094,13.33,0.015,306.9
2019-09-12T01:30:31,42.805,6.029,-0.078,-0.004,-0.044,99.0,104.0,97.0,13.4,1505.3,326.4,-0.7,1.8,2470.141,13.33,0.078,267.1
2019-09-12T01:33:32,42.805,6.029,-0.053,0.0,-0.031,97.0,104.0,98.0,13.4,1505.3,324.9,-0.7,1.8,2470.123,13.33,0.053,270.0
2019-09-12T01:36:33,42.805,6.029,-0.028,-0.01,-0.011,99.0,104.0,97.0,13.4,1505.3,327.4,-0.7,1.8,2470.137,13.33,0.029,250.4
2019-09-12T01:39:34,42.805,6.029,-0.015,0.002,0.037,99.0,103.0,98.0,13.3,1505.3,326.6,-0.7,1.8,2470.13,13.33,0.015,277.6
2019-09-12T01:42:35,42.805,6.029,-0.026,0.004,0.013,100.0,106.0,97.0,13.4,1505.3,325.5,-0.7,1.8,2470.119,13.33,0.026,278.7
2019-09-12T01:45:36,42.805,6.029,-0.043,-0.004,0.0,100.0,104.0,97.0,13.4,1505.3,323.5,-0.7,1.8,2470.09,13.33,0.043,264.7
2019-09-12T01:48:37,42.805,6.029,-0.032,-0.025,-0.008,101.0,101.0,97.0,13.4,1505.3,323.0,-0.7,1.8,2470.064,13.33,0.04,232.0
2019-09-12T01:51:38,42.805,6.029,-0.023,-0.003,-0.005,100.0,103.0,97.0,13.4,1505.3,323.5,-0.7,1.8,2470.09,13.33,0.023,262.6
2019-09-12T01:54:39,42.805,6.029,-0.01,-0.001,0.0,99.0,102.0,98.0,13.4,1505.3,323.6,-0.7,1.8,2470.117,13.33,0.01,264.3
2019-09-12T01:57:40,42.805,6.029,-0.035,-0.025,0.0,99.0,102.0,98.0,13.3,1505.3,323.2,-0.7,1.8,2470.13,13.33,0.043,234.5
2019-09-12T02:00:41,42.805,6.029,-0.045,-0.02,-0.053,99.0,103.0,100.0,13.4,1505.3,323.3,-0.7,1.8,2470.139,13.33,0.049,246.0
2019-09-12T02:03:42,42.805,6.029,-0.012,0.016,0.018,100.0,102.0,98.0,13.3,1505.3,324.1,-0.7,1.8,2470.102,13.33,0.02,323.1
2019-09-12T02:06:43,42.805,6.029,-0.02,-0.013,-0.018,101.0,102.0,96.0,13.4,1505.3,326.6,-0.7,1.9,2470.115,13.33,0.023,237.0
2019-09-12T02:09:44,42.805,6.029,-0.057,-0.008,0.006,99.0,105.0,97.0,13.3,1505.3,323.3,-0.7,1.8,2470.14,13.33,0.057,262.0
2019-09-12T02:12:45,42.805,6.029,-0.03,-0.009,-0.008,100.0,103.0,97.0,13.4,1505.3,325.5,-0.7,1.9,2470.132,13.33,0.031,253.3
2019-09-12T02:15:46,42.805,6.029,-0.032,-0.016,-0.037,97.0,105.0,97.0,13.3,1505.3,326.0,-0.7,1.8,2470.155,13.33,0.035,243.4
2019-09-12T02:18:47,42.805,6.029,-0.079,-0.03,-0.06,99.0,106.0,98.0,13.3,1505.3,328.0,-0.7,1.8,2470.106,13.33,0.084,249.2
2019-09-12T02:21:48,42.805,6.029,-0.03,-0.029,-0.03,99.0,103.0,98.0,13.4,1505.3,328.7,-0.7,1.9,2470.091,13.33,0.041,226.0
2019-09-12T02:24:49,42.805,6.029,-0.022,0.001,0.01,98.0,103.0,98.0,13.4,1505.3,326.1,-0.7,1.8,2470.133,13.33,0.022,272.6
2019-09-12T02:27:50,42.805,6.029,-0.016,-0.003,0.025,100.0,102.0,98.0,13.4,1505.3,325.5,-0.7,1.8,2470.141,13.33,0.016,259.4
2019-09-12T02:30:51,42.805,6.029,-0.041,-0.015,0.0,100.0,103.0,97.0,13.3,1505.3,325.4,-0.7,1.8,2470.13,13.33,0.043,249.9
2019-09-12T02:33:52,42.805,6.029,0.029,0.014,0.043,99.0,104.0,97.0,13.3,1505.3,325.1,-0.7,1.8,2470.142,13.33,0.032,64.2
2019-09-12T02:36:53,42.805,6.029,-0.029,0.002,0.013,99.0,104.0,98.0,13.4,1505.3,325.9,-0.7,1.8,2470.117,13.33,0.029,273.9
2019-09-12T02:39:54,42.805,6.029,-0.031,-0.001,0.006,99.0,104.0,97.0,13.4,1505.3,323.9,-0.8,1.8,2470.188,13.33,0.031,268.2
2019-09-12T02:42:55,42.805,6.029,-0.021,-0.001,0.033,100.0,103.0,98.0,13.3,1505.3,325.3,-0.7,1.8,2470.146,13.33,0.021,267.3
2019-09-12T02:45:56,42.805,6.029,-0.031,-0.014,0.005,100.0,102.0,97.0,13.3,1505.3,326.3,-0.7,1.8,2470.099,13.33,0.034,245.7
2019-09-12T02:48:57,42.805,6.029,-0.015,-0.012,-0.023,100.0,103.0,97.0,13.4,1505.3,325.1,-0.7,1.8,2470.153,13.33,0.019,231.3
2019-09-12T02:51:58,42.805,6.029,-0.066,0.0,-0.02,100.0,104.0,98.0,13.4,1505.3,325.1,-0.7,1.8,2470.157,13.33,0.065,270.0
2019-09-12T02:54:59,42.805,6.029,-0.041,0.0,0.008,100.0,103.0,97.0,13.3,1505.3,323.7,-0.7,1.8,2470.118,13.33,0.041,270.0
2019-09-12T02:58:00,42.805,6.029,-0.026,-0.007,0.021,100.0,103.0,98.0,13.4,1505.3,325.3,-0.7,1.9,2470.123,13.33,0.026,254.9
2019-09-12T03:01:01,42.805,6.029,-0.038,-0.001,-0.001,98.0,104.0,98.0,13.3,1505.3,326.5,-0.7,1.8,2470.121,13.33,0.038,268.5
2019-09-12T03:04:02,42.805,6.029,-0.074,0.006,-0.024,99.0,104.0,97.0,13.4,1505.3,327.8,-0.7,1.8,2470.145,13.33,0.074,274.6
2019-09-12T03:07:03,42.805,6.029,-0.02,-0.006,0.013,99.0,103.0,97.0,13.3,1505.3,327.3,-0.7,1.9,2470.144,13.33,0.02,253.3
2019-09-12T03:10:04,42.805,6.029,-0.025,0.011,0.0,100.0,104.0,97.0,13.4,1505.3,327.5,-0.7,1.8,2470.13,13.33,0.027,293.7
2019-09-12T03:13:05,42.805,6.029,0.001,-0.007,0.014,99.0,103.0,97.0,13.4,1505.3,324.5,-0.7,1.8,2470.151,13.33,0.007,171.9
2019-09-12T03:16:06,42.805,6.029,-0.017,-0.007,0.007,99.0,104.0,97.0,13.4,1505.3,326.9,-0.7,1.8,2470.179,13.33,0.018,247.6
2019-09-12T03:19:07,42.805,6.029,-0.049,0.02,-0.001,100.0,102.0,97.0,13.4,1505.3,324.7,-0.7,1.8,2470.141,13.33,0.052,292.2
2019-09-12T03:22:08,42.805,6.029,-0.006,0.0,0.025,99.0,104.0,97.0,13.3,1505.3,324.1,-0.7,1.9,2470.154,13.33,0.006,270.0
2019-09-12T03:25:09,42.805,6.029,-0.043,-0.014,-0.027,99.0,103.0,98.0,13.4,1505.3,324.8,-0.7,1.8,2470.157,13.33,0.045,252.0
2019-09-12T03:28:10,42.805,6.029,0.006,-0.018,-0.036,100.0,102.0,97.0,13.3,1505.3,324.8,-0.7,1.8,2470.152,13.33,0.018,161.6
2019-09-12T03:31:11,42.805,6.029,-0.029,0.01,-0.029,99.0,104.0,97.0,13.4,1505.3,327.8,-0.7,1.8,2470.154,13.33,0.03,289.0
2019-09-12T03:34:12,42.805,6.029,-0.001,0.011,0.017,100.0,104.0,97.0,13.4,1505.3,326.7,-0.7,1.8,2470.113,13.33,0.011,354.8
2019-09-12T03:37:13,42.805,6.029,-0.052,0.008,-0.017,99.0,104.0,98.0,13.4,1505.3,324.9,-0.7,1.8,2470.191,13.33,0.052,278.7
2019-09-12T03:40:14,42.805,6.029,-0.061,-0.016,-0.011,99.0,103.0,97.0,13.4,1505.3,323.3,-0.7,1.8,2470.183,13.33,0.063,255.3
2019-09-12T03:43:15,42.805,6.029,-0.017,-0.012,0.032,99.0,104.0,97.0,13.4,1505.3,325.1,-0.8,1.9,2470.171,13.33,0.02,234.8
2019-09-12T03:46:16,42.805,6.029,-0.044,-0.002,-0.017,100.0,104.0,97.0,13.4,1505.3,326.8,-0.7,1.8,2470.128,13.33,0.044,267.4
2019-09-12T03:49:17,42.805,6.029,-0.041,-0.008,0.024,99.0,103.0,97.0,13.4,1505.3,326.5,-0.7,1.8,2470.194,13.33,0.041,259.0
2019-09-12T03:52:18,42.805,6.029,-0.021,-0.012,0.023,99.0,103.0,97.0,13.4,1505.3,324.2,-0.7,1.8,2470.17,13.33,0.024,240.3
2019-09-12T03:55:19,42.805,6.029,-0.013,0.011,0.0,99.0,103.0,98.0,13.4,1505.3,323.4,-0.7,1.8,2470.155,13.33,0.017,310.2
2019-09-12T03:58:20,42.805,6.029,-0.062,0.003,-0.013,99.0,105.0,97.0,13.3,1505.3,328.0,-0.7,1.8,2470.155,13.33,0.062,272.8
2019-09-12T04:01:21,42.805,6.029,-0.034,-0.009,-0.023,99.0,103.0,98.0,13.3,1505.3,324.2,-0.7,1.8,2470.207,13.33,0.035,255.2
2019-09-12T04:04:22,42.805,6.029,-0.053,-0.017,-0.003,101.0,105.0,97.0,13.3,1505.3,322.9,-0.7,1.8,2470.154,13.33,0.055,252.2
2019-09-12T04:07:23,42.805,6.029,-0.021,-0.004,0.009,100.0,104.0,97.0,13.3,1505.3,325.9,-0.7,1.8,2470.201,13.33,0.021,259.2
2019-09-12T04:10:24,42.805,6.029,-0.004,-0.007,0.003,100.0,105.0,97.0,13.4,1505.3,326.4,-0.7,1.8,2470.184,13.33,0.008,209.7
2019-09-12T04:13:25,42.805,6.029,-0.03,0.002,-0.007,102.0,104.0,97.0,13.4,1505.3,324.4,-0.7,1.8,2470.182,13.33,0.03,273.8
2019-09-12T04:16:26,42.805,6.029,-0.03,-0.012,-0.018,100.0,103.0,97.0,13.4,1505.3,326.8,-0.7,1.8,2470.222,13.33,0.032,248.2
2019-09-12T04:19:27,42.805,6.029,-0.016,-0.008,-0.014,100.0,104.0,98.0,13.4,1505.3,326.5,-0.7,1.8,2470.179,13.33,0.017,243.4
2019-09-12T04:22:28,42.805,6.029,-0.011,0.002,0.005,98.0,104.0,98.0,13.4,1505.3,323.3,-0.7,1.8,2470.203,13.33,0.011,280.3
2019-09-12T04:25:29,42.805,6.029,-0.03,0.001,-0.009,100.0,104.0,97.0,13.3,1505.3,323.9,-0.7,1.9,2470.228,13.33,0.03,271.9
2019-09-12T04:28:30,42.805,6.029,-0.049,-0.002,-0.06,100.0,103.0,97.0,13.3,1505.3,325.0,-0.7,1.8,2470.181,13.33,0.049,267.7
2019-09-12T04:31:31,42.805,6.029,-0.059,-0.006,-0.003,100.0,104.0,98.0,13.4,1505.3,323.3,-0.7,1.8,2470.178,13.33,0.059,264.2
2019-09-12T04:34:32,42.805,6.029,-0.078,-0.015,-0.057,99.0,104.0,97.0,13.3,1505.3,324.8,-0.7,1.9,2470.215,13.33,0.079,259.1
2019-09-12T04:37:33,42.805,6.029,-0.042,-0.004,0.005,99.0,104.0,99.0,13.4,1505.3,325.6,-0.7,1.8,2470.272,13.33,0.042,264.6
2019-09-12T04:40:34,42.805,6.029,-0.023,-0.001,0.011,100.0,102.0,97.0,13.4,1505.3,325.9,-0.7,1.8,2470.231,13.33,0.023,267.5
2019-09-12T04:43:35,42.805,6.029,-0.008,-0.019,0.015,100.0,103.0,97.0,13.4,1505.3,324.6,-0.7,1.8,2470.211,13.33,0.02,202.8
2019-09-12T04:46:36,42.805,6.029,-0.019,-0.016,-0.002,99.0,103.0,97.0,13.4,1505.3,323.5,-0.7,1.8,2470.215,13.33,0.024,229.9
2019-09-12T04:49:37,42.805,6.029,-0.021,0.0,0.003,99.0,104.0,97.0,13.4,1505.3,323.5,-0.7,1.8,2470.195,13.33,0.021,270.0
2019-09-12T04:52:38,42.805,6.029,-0.023,-0.011,-0.025,102.0,104.0,97.0,13.4,1505.3,324.9,-0.7,1.8,2470.231,13.33,0.025,244.4
2019-09-12T04:55:39,42.805,6.029,0.011,-0.022,0.013,99.0,104.0,98.0,13.4,1505.3,324.0,-0.7,1.9,2470.239,13.33,0.024,153.4
2019-09-12T04:58:40,42.805,6.029,-0.014,-0.012,-0.014,100.0,104.0,97.0,13.3,1505.3,326.4,-0.7,1.8,2470.249,13.33,0.018,229.4
2019-09-12T05:01:41,42.805,6.029,-0.061,-0.007,-0.02,100.0,105.0,97.0,13.4,1505.3,325.4,-0.7,1.9,2470.187,13.33,0.061,263.5
2019-09-12T05:04:42,42.805,6.029,-0.075,0.002,-0.039,99.0,103.0,97.0,13.4,1505.3,328.1,-0.7,1.8,2470.209,13.33,0.075,271.5
2019-09-12T05:07:43,42.805,6.029,-0.081,-0.022,-0.034,100.0,104.0,97.0,13.4,1505.3,327.9,-0.7,1.8,2470.274,13.33,0.083,254.8
2019-09-12T05:10:44,42.805,6.029,-0.022,-0.009,0.01,100.0,102.0,97.0,13.4,1505.3,327.8,-0.7,1.9,2470.212,13.33,0.023,247.8
2019-09-12T05:13:45,42.805,6.029,-0.029,-0.002,-0.024,98.0,103.0,97.0,13.4,1505.3,327.3,-0.8,1.8,2470.266,13.33,0.029,266.1
2019-09-12T05:16:46,42.805,6.029,-0.02,0.027,0.013,99.0,103.0,96.0,13.4,1505.3,326.4,-0.7,1.8,2470.171,13.33,0.033,323.5
2019-09-12T05:19:47,42.805,6.029,-0.034,-0.008,0.031,99.0,104.0,97.0,13.4,1505.3,325.3,-0.7,1.8,2470.287,13.33,0.034,256.8
2019-09-12T05:22:48,42.805,6.029,-0.027,-0.001,0.024,99.0,103.0,97.0,13.3,1505.3,325.0,-0.7,1.9,2470.235,13.33,0.027,267.9
2019-09-12T05:25:49,42.805,6.029,-0.014,-0.023,-0.002,98.0,104.0,98.0,13.4,1505.3,323.2,-0.7,1.9,2470.275,13.33,0.026,211.3
2019-09-12T05:28:50,42.805,6.029,-0.03,-0.01,-0.007,98.0,103.0,98.0,13.4,1505.3,323.9,-0.7,1.8,2470.252,13.33,0.031,251.6
2019-09-12T05:31:51,42.805,6.029,-0.023,0.012,0.023,100.0,103.0,97.0,13.3,1505.3,326.9,-0.7,1.8,2470.189,13.33,0.025,297.6
2019-09-12T05:34:52,42.805,6.029,-0.074,-0.014,-0.049,98.0,104.0,97.0,13.4,1505.3,327.6,-0.7,1.8,2470.242,13.33,0.075,259.3
2019-09-12T05:37:53,42.805,6.029,-0.054,-0.002,0.024,101.0,104.0,96.0,13.4,1505.3,324.9,-0.7,1.8,2470.245,13.33,0.054,267.9
2019-09-12T05:40:54,42.805,6.029,-0.099,-0.023,-0.075,99.0,103.0,98.0,13.3,1505.3,323.1,-0.7,1.8,2470.257,13.33,0.101,256.9
2019-09-12T05:43:55,42.805,6.029,-0.061,0.012,-0.018,101.0,105.0,96.0,13.4,1505.3,326.8,-0.7,1.8,2470.256,13.33,0.062,281.1
2019-09-12T05:46:56,42.805,6.029,-0.024,0.009,0.002,99.0,103.0,98.0,13.4,1505.3,326.2,-0.7,1.8,2470.208,13.33,0.025,290.6
2019-09-12T05:49:57,42.805,6.029,-0.054,0.008,-0.001,99.0,105.0,97.0,13.3,1505.3,325.5,-0.7,1.8,2470.253,13.33,0.054,278.4
2019-09-12T05:52:58,42.805,6.029,-0.051,0.015,-0.034,98.0,103.0,97.0,13.4,1505.3,324.7,-0.7,1.9,2470.244,13.33,0.053,286.4
2019-09-12T05:55:59,42.805,6.029,-0.072,-0.014,-0.076,99.0,103.0,98.0,13.3,1505.3,325.3,-0.7,1.8,2470.261,13.33,0.073,259.0
2019-09-12T05:59:00,42.805,6.029,-0.042,-0.015,-0.035,100.0,104.0,97.0,13.4,1505.3,326.6,-0.6,1.8,2470.222,13.33,0.044,250.4
2019-09-12T06:02:01,42.805,6.029,-0.05,0.008,0.014,98.0,104.0,97.0,13.4,1505.3,325.8,-0.7,1.8,2470.274,13.33,0.05,279.1
2019-09-12T06:05:02,42.805,6.029,-0.061,-0.018,-0.059,99.0,103.0,97.0,13.3,1505.3,324.2,-0.7,1.8,2470.262,13.33,0.063,253.6
2019-09-12T06:08:03,42.805,6.029,-0.017,-0.009,-0.002,100.0,103.0,96.0,13.3,1505.3,323.1,-0.7,1.8,2470.21,13.33,0.019,242.1
2019-09-12T06:11:04,42.805,6.029,-0.057,0.001,0.0,100.0,103.0,98.0,13.4,1505.3,325.9,-0.7,1.8,2470.274,13.33,0.057,271.0
2019-09-12T06:14:05,42.805,6.029,-0.037,-0.01,-0.019,99.0,104.0,96.0,13.4,1505.3,326.9,-0.7,1.8,2470.23,13.33,0.038,254.9
2019-09-12T06:17:06,42.805,6.029,-0.027,-0.031,-0.007,99.0,104.0,97.0,13.4,1505.3,326.8,-0.7,1.8,2470.21,13.33,0.041,221.1
2019-09-12T06:20:07,42.805,6.029,-0.054,-0.004,-0.018,99.0,103.0,98.0,13.4,1505.3,325.0,-0.7,1.8,2470.196,13.33,0.054,265.8
2019-09-12T06:23:08,42.805,6.029,-0.024,0.0,-0.012,97.0,105.0,97.0,13.4,1505.3,324.7,-0.7,1.8,2470.24,13.33,0.024,270.0
2019-09-12T06:26:09,42.805,6.029,-0.064,-0.002,-0.044,100.0,103.0,97.0,13.3,1505.3,326.2,-0.7,1.9,2470.219,13.33,0.064,268.2
2019-09-12T06:29:10,42.805,6.029,0.0,0.008,0.042,101.0,104.0,98.0,13.4,1505.3,325.5,-0.7,1.9,2470.238,13.33,0.008,0.0
2019-09-12T06:32:11,42.805,6.029,-0.076,0.0,-0.008,100.0,103.0,96.0,13.4,1505.3,324.6,-0.7,1.8,2470.183,13.33,0.075,270.0
2019-09-12T06:35:12,42.805,6.029,-0.016,-0.018,0.026,100.0,102.0,97.0,13.4,1505.3,325.5,-0.7,1.8,2470.24,13.33,0.024,221.6
2019-09-12T06:38:13,42.805,6.029,-0.035,0.002,0.008,99.0,102.0,98.0,13.4,1505.3,325.4,-0.7,1.8,2470.206,13.33,0.035,273.3
2019-09-12T06:41:14,42.805,6.029,-0.019,0.007,-0.008,99.0,103.0,97.0,13.3,1505.3,325.9,-0.8,1.8,2470.217,13.33,0.02,290.2
2019-09-12T06:44:15,42.805,6.029,0.027,-0.009,0.068,99.0,103.0,97.0,13.4,1505.3,323.5,-0.7,1.8,2470.224,13.33,0.028,108.4
2019-09-12T06:47:16,42.805,6.029,0.0,-0.009,0.002,98.0,104.0,97.0,13.4,1505.3,324.5,-0.7,1.8,2470.224,13.33,0.009,180.0
2019-09-12T06:50:17,42.805,6.029,-0.08,-0.005,-0.025,99.0,104.0,96.0,13.4,1505.3,323.6,-0.7,1.8,2470.226,13.33,0.08,266.4
2019-09-12T06:53:18,42.805,6.029,-0.02,0.0,0.044,99.0,103.0,98.0,13.3,1505.3,323.0,-0.7,1.8,2470.214,13.33,0.02,270.0
2019-09-12T06:56:19,42.805,6.029,-0.043,-0.011,-0.025,99.0,103.0,97.0,13.4,1505.3,324.8,-0.7,1.8,2470.227,13.33,0.044,255.7
2019-09-12T06:59:20,42.805,6.029,-0.015,-0.007,0.0,99.0,103.0,97.0,13.4,1505.3,325.9,-0.7,1.9,2470.205,13.33,0.016,245.0
2019-09-12T07:02:21,42.805,6.029,-0.081,0.01,-0.051,99.0,102.0,97.0,13.3,1505.3,326.5,-0.7,1.8,2470.196,13.33,0.081,277.0
2019-09-12T07:05:22,42.805,6.029,-0.023,0.007,-0.015,100.0,102.0,97.0,13.4,1505.3,327.6,-0.7,1.9,2470.179,13.33,0.024,286.9
2019-09-12T07:08:23,42.805,6.029,-0.103,0.021,-0.057,99.0,103.0,97.0,13.3,1505.3,324.1,-0.6,1.8,2470.183,13.33,0.105,281.5
2019-09-12T07:11:24,42.805,6.029,-0.022,-0.002,-0.005,98.0,105.0,97.0,13.3,1505.3,327.0,-0.8,1.8,2470.237,13.33,0.022,264.8
2019-09-12T07:14:25,42.805,6.029,-0.008,-0.017,-0.018,100.0,104.0,100.0,13.4,1505.3,327.1,-0.7,1.9,2470.187,13.33,0.018,205.2
2019-09-12T07:17:26,42.805,6.029,-0.044,-0.022,-0.017,99.0,103.0,99.0,13.4,1505.3,328.3,-0.7,1.8,2470.178,13.33,0.049,243.4
2019-09-12T07:20:27,42.805,6.029,-0.031,-0.017,-0.043,99.0,103.0,98.0,13.4,1505.3,328.1,-0.7,1.8,2470.188,13.33,0.035,241.3
2019-09-12T07:23:28,42.805,6.029,-0.024,-0.008,0.014,98.0,104.0,97.0,13.4,1505.3,324.1,-0.7,1.9,2470.195,13.33,0.025,251.6
2019-09-12T07:26:29,42.805,6.029,-0.036,-0.002,0.001,98.0,103.0,98.0,13.3,1505.3,325.0,-0.7,1.8,2470.207,13.33,0.036,266.8
2019-09-12T07:29:30,42.805,6.029,-0.013,-0.012,-0.023,100.0,104.0,97.0,13.4,1505.3,326.6,-0.7,1.9,2470.227,13.33,0.017,227.3
2019-09-12T07:32:31,42.805,6.029,-0.03,0.009,0.02,100.0,102.0,98.0,13.4,1505.3,324.1,-0.7,1.8,2470.166,13.33,0.031,286.7
2019-09-12T07:35:32,42.805,6.029,-0.004,0.01,0.032,99.0,103.0,97.0,13.4,1505.3,326.0,-0.7,1.8,2470.216,13.33,0.01,338.2
2019-09-12T07:38:33,42.805,6.029,-0.051,-0.005,-0.012,100.0,102.0,97.0,13.4,1505.3,324.3,-0.7,1.9,2470.163,13.33,0.051,264.4
2019-09-12T07:41:34,42.805,6.029,-0.035,-0.017,-0.025,99.0,104.0,97.0,13.3,1505.3,327.0,-0.7,1.8,2470.153,13.33,0.038,244.1
2019-09-12T07:44:35,42.805,6.029,-0.033,0.0,-0.012,99.0,104.0,97.0,13.4,1505.3,323.7,-0.7,1.8,2470.181,13.33,0.033,270.0
2019-09-12T07:47:36,42.805,6.029,-0.038,-0.002,0.024,100.0,103.0,98.0,13.4,1505.3,324.4,-0.7,1.8,2470.171,13.33,0.038,267.0
2019-09-12T07:50:37,42.805,6.029,-0.021,0.008,0.002,100.0,103.0,98.0,13.4,1505.3,326.8,-0.7,1.8,2470.223,13.33,0.022,290.9
2019-09-12T07:53:38,42.805,6.029,-0.01,0.003,-0.02,100.0,104.0,99.0,13.3,1505.3,326.3,-0.7,1.8,2470.196,13.33,0.01,286.7
2019-09-12T07:56:39,42.805,6.029,-0.005,-0.033,0.046,100.0,104.0,98.0,13.3,1505.3,324.2,-0.7,1.8,2470.212,13.33,0.033,188.6
2019-09-12T07:59:40,42.805,6.029,-0.052,-0.013,-0.041,100.0,105.0,97.0,13.3,1505.3,324.7,-0.7,1.9,2470.202,13.33,0.053,256.0
2019-09-12T08:02:41,42.805,6.029,-0.045,-0.018,-0.033,100.0,104.0,98.0,13.4,1505.3,327.2,-0.7,1.8,2470.192,13.33,0.048,248.2
2019-09-12T08:05:42,42.805,6.029,-0.048,-0.007,-0.015,100.0,105.0,97.0,13.4,1505.3,326.0,-0.7,1.8,2470.247,13.33,0.048,261.7
2019-09-12T08:08:43,42.805,6.029,-0.037,0.013,-0.04,101.0,104.0,97.0,13.4,1505.3,326.2,-0.7,1.8,2470.191,13.33,0.039,289.4
2019-09-12T08:11:44,42.805,6.029,-0.062,-0.007,-0.036,100.0,103.0,98.0,13.4,1505.3,326.8,-0.7,1.9,2470.136,13.33,0.062,263.6
2019-09-12T08:14:45,42.805,6.029,0.011,-0.001,0.041,101.0,103.0,97.0,13.4,1505.3,325.3,-0.7,1.8,2470.17,13.33,0.011,95.2
2019-09-12T08:17:46,42.805,6.029,-0.038,-0.019,0.016,100.0,104.0,97.0,13.4,1505.3,323.6,-0.7,1.8,2470.174,13.33,0.042,243.4
2019-09-12T08:20:47,42.805,6.029,-0.022,-0.015,-0.001,100.0,108.0,99.0,13.4,1505.3,325.2,-0.7,1.8,2470.169,13.33,0.026,235.7
2019-09-12T08:23:48,42.805,6.029,-0.064,0.008,-0.044,100.0,103.0,97.0,13.4,1505.3,326.7,-0.7,1.8,2470.191,13.33,0.064,277.1
2019-09-12T08:26:49,42.805,6.029,-0.028,-0.002,0.01,99.0,105.0,98.0,13.4,1505.3,324.9,-0.7,1.8,2470.169,13.33,0.028,265.9
2019-09-12T08:29:50,42.805,6.029,-0.042,0.0,-0.037,100.0,102.0,97.0,13.4,1505.3,324.9,-0.7,1.8,2470.154,13.33,0.042,270.0
2019-09-12T08:32:51,42.805,6.029,-0.035,-0.016,-0.015,101.0,105.0,97.0,13.3,1505.3,326.2,-0.7,1.9,2470.217,13.33,0.038,245.4
2019-09-12T08:35:52,42.805,6.029,-0.019,-0.001,0.009,100.0,103.0,97.0,13.4,1505.3,326.6,-0.7,1.8,2470.152,13.33,0.019,267.0
2019-09-12T08:38:53,42.805,6.029,-0.031,0.008,0.001,100.0,105.0,97.0,13.4,1505.3,323.1,-0.7,1.8,2470.142,13.33,0.032,284.5
2019-09-12T08:41:54,42.805,6.029,-0.057,0.002,-0.026,101.0,105.0,96.0,13.3,1505.3,326.6,-0.7,1.8,2470.171,13.33,0.057,272.0
2019-09-12T08:44:55,42.805,6.029,-0.021,0.016,0.026,100.0,105.0,96.0,13.3,1505.3,325.2,-0.7,1.8,2470.201,13.33,0.026,307.3
2019-09-12T08:47:56,42.805,6.029,-0.029,-0.004,0.009,100.0,102.0,98.0,13.3,1505.3,327.6,-0.7,1.9,2470.159,13.33,0.029,262.2
2019-09-12T08:50:57,42.805,6.029,-0.022,-0.03,-0.011,100.0,105.0,96.0,13.4,1505.3,324.6,-0.7,1.8,2470.21,13.33,0.037,216.3
2019-09-12T08:53:58,42.805,6.029,-0.052,-0.002,-0.015,99.0,104.0,97.0,13.4,1505.3,324.1,-0.7,1.8,2470.187,13.33,0.052,267.8
2019-09-12T08:56:59,42.805,6.029,-0.03,0.0,0.0,99.0,102.0,97.0,13.4,1505.3,327.7,-0.8,1.8,2470.134,13.33,0.03,270.0
2019-09-12T09:00:00,42.805,6.029,-0.024,0.01,-0.013,98.0,104.0,98.0,13.4,1505.3,327.4,-0.6,1.8,2470.186,13.33,0.026,292.6
2019-09-12T09:03:01,42.805,6.029,-0.015,0.01,0.016,100.0,104.0,98.0,13.3,1505.3,327.6,-0.7,1.8,2470.197,13.33,0.018,303.7
2019-09-12T09:06:02,42.805,6.029,-0.027,0.017,0.017,99.0,104.0,97.0,13.4,1505.3,326.7,-0.7,1.8,2470.198,13.33,0.031,302.2
2019-09-12T09:09:03,42.805,6.029,-0.05,-0.005,-0.036,99.0,105.0,96.0,13.4,1505.3,327.1,-0.7,1.8,2470.198,13.33,0.05,264.3
2019-09-12T09:12:04,42.805,6.029,-0.044,0.004,-0.014,97.0,104.0,99.0,13.3,1505.3,327.5,-0.8,1.9,2470.188,13.33,0.044,275.2
2019-09-12T09:15:05,42.805,6.029,-0.075,0.005,-0.031,100.0,105.0,97.0,13.4,1505.3,324.2,-0.7,1.8,2470.146,13.33,0.075,273.8
2019-09-12T09:18:06,42.805,6.029,-0.032,0.013,0.01,99.0,103.0,97.0,13.4,1505.3,326.1,-0.7,1.9,2470.138,13.33,0.034,292.1
2019-09-12T09:21:07,42.805,6.029,-0.048,0.002,0.005,98.0,105.0,96.0,13.4,1505.3,323.3,-0.7,1.8,2470.162,13.33,0.048,272.4
2019-09-12T09:24:08,42.805,6.029,-0.05,0.007,-0.026,99.0,103.0,98.0,13.3,1505.3,328.0,-0.7,1.8,2470.171,13.33,0.05,278.0
2019-09-12T09:27:09,42.805,6.029,-0.067,0.002,-0.029,99.0,104.0,97.0,13.4,1505.3,325.7,-0.7,1.8,2470.152,13.33,0.067,271.7
2019-09-12T09:30:10,42.805,6.029,-0.024,-0.004,-0.004,100.0,106.0,97.0,13.3,1505.3,327.7,-0.7,1.8,2470.144,13.33,0.024,260.5
2019-09-12T09:33:11,42.805,6.029,-0.053,0.005,-0.009,100.0,104.0,98.0,13.4,1505.3,324.4,-0.7,1.8,2470.187,13.33,0.053,275.4
2019-09-12T09:36:12,42.805,6.029,-0.017,-0.009,-0.005,99.0,104.0,98.0,13.3,1505.3,324.4,-0.7,1.8,2470.149,13.33,0.019,242.1
2019-09-12T09:39:13,42.805,6.029,-0.062,0.005,-0.01,100.0,104.0,97.0,13.4,1505.3,327.0,-0.7,1.9,2470.142,13.33,0.062,274.6
2019-09-12T09:42:14,42.805,6.029,-0.052,-0.015,-0.023,99.0,103.0,98.0,13.4,1505.3,323.2,-0.7,1.8,2470.132,13.33,0.054,253.9